| time (UTC) | temp F | wind direction | speed knots | gust knots | rain 1hr in | rain 24hr in | rain mn in | humidity % | barometer mb |
| 20260505183109 | 81 | 115 | 5.2 | 13.0 | 0.00 | 0.00 | 0.00 | 44 | 1015.0 |
| 20260505181546 | 80 | 234 | 5.2 | 14.8 | 0.00 | 0.00 | 0.00 | 43 | 1015.2 |
| 20260505180046 | 79 | 169 | 7.8 | 15.6 | 0.00 | 0.00 | 0.00 | 43 | 1015.2 |
| 20260505174547 | 80 | 200 | 5.2 | 14.8 | 0.00 | 0.00 | 0.00 | 46 | 1015.2 |
| 20260505173051 | 80 | 237 | 4.3 | 13.0 | 0.00 | 0.00 | 0.00 | 48 | 1015.2 |
| 20260505171551 | 78 | 169 | 6.1 | 13.9 | 0.00 | 0.00 | 0.00 | 48 | 1015.6 |
| 20260505170044 | 79 | 209 | 4.3 | 15.6 | 0.00 | 0.00 | 0.00 | 48 | 1015.8 |
| 20260505164546 | 78 | 158 | 7.0 | 13.9 | 0.00 | 0.00 | 0.00 | 49 | 1015.9 |
| 20260505163044 | 77 | 184 | 4.3 | 17.4 | 0.00 | 0.00 | 0.00 | 51 | 1016.0 |
| 20260505161551 | 77 | 163 | 3.5 | 12.2 | 0.00 | 0.00 | 0.00 | 52 | 1016.0 |
| 20260505153049 | 75 | 127 | 5.2 | 13.9 | 0.00 | 0.00 | 0.00 | 55 | 1016.2 |
| 20260505151545 | 74 | 159 | 5.2 | 12.2 | 0.00 | 0.00 | 0.00 | 57 | 1016.3 |
| 20260505124548 | 64 | 202 | 4.3 | 9.6 | 0.00 | 0.00 | 0.00 | 72 | 1016.8 |
| 20260505123044 | 63 | 181 | 2.6 | 10.4 | 0.00 | 0.00 | 0.00 | 74 | 1016.9 |
| 20260505121541 | 62 | 145 | 4.3 | 12.2 | 0.00 | 0.00 | 0.00 | 75 | 1016.6 |
| 20260505120104 | 61 | 186 | 4.3 | 10.4 | 0.00 | 0.00 | 0.00 | 76 | 1016.7 |
| 20260505114544 | 60 | 120 | 4.3 | 7.0 | 0.00 | 0.00 | 0.00 | 77 | 1016.6 |
| 20260505113044 | 60 | 167 | 2.6 | 6.1 | 0.00 | 0.00 | 0.00 | 77 | 1016.4 |
| 20260505111546 | 59 | 163 | 3.5 | 7.8 | 0.00 | 0.00 | 0.00 | 78 | 1016.4 |
| 20260505101546 | 58 | 143 | 3.5 | 7.8 | 0.00 | 0.00 | 0.00 | 79 | 1015.7 |
| 20260505100043 | 58 | 125 | 2.6 | 7.0 | 0.00 | 0.00 | 0.00 | 78 | 1015.6 |
| 20260505094545 | 58 | 188 | 1.7 | 7.0 | 0.00 | 0.00 | 0.00 | 78 | 1015.4 |
| 20260505093044 | 58 | 112 | 1.7 | 7.8 | 0.00 | 0.00 | 0.00 | 78 | 1015.3 |
| 20260505091543 | 59 | 90 | 2.6 | 7.0 | 0.00 | 0.00 | 0.00 | 77 | 1015.3 |
| 20260505090047 | 59 | 142 | 2.6 | 7.8 | 0.00 | 0.00 | 0.00 | 76 | 1015.2 |
| 20260505084545 | 60 | 178 | 3.5 | 8.7 | 0.00 | 0.00 | 0.00 | 75 | 1015.2 |
| 20260505083043 | 60 | 124 | 3.5 | 9.6 | 0.00 | 0.00 | 0.00 | 74 | 1015.2 |
| 20260505081543 | 61 | 180 | 1.7 | 6.1 | 0.00 | 0.00 | 0.00 | 73 | 1015.1 |
| 20260505080046 | 61 | 195 | 2.6 | 8.7 | 0.00 | 0.00 | 0.00 | 73 | 1015.0 |
| 20260505074551 | 62 | 132 | 2.6 | 7.0 | 0.00 | 0.00 | 0.00 | 72 | 1015.0 |
| 20260505073059 | 62 | 151 | 1.7 | 8.7 | 0.00 | 0.00 | 0.00 | 71 | 1014.9 |
| 20260505071540 | 62 | 127 | 1.7 | 8.7 | 0.00 | 0.00 | 0.00 | 70 | 1014.8 |
| 20260505070049 | 62 | 355 | 3.5 | 7.8 | 0.00 | 0.00 | 0.00 | 70 | 1014.6 |
| 20260505064546 | 63 | 135 | 2.6 | 8.7 | 0.00 | 0.00 | 0.00 | 69 | 1014.6 |
| 20260505063045 | 63 | 101 | 4.3 | 11.3 | 0.00 | 0.00 | 0.00 | 68 | 1014.7 |
| 20260505061558 | 63 | 216 | 2.6 | 12.2 | 0.00 | 0.00 | 0.00 | 68 | 1014.7 |
| 20260505060049 | 63 | 171 | 2.6 | 9.6 | 0.00 | 0.00 | 0.00 | 68 | 1014.9 |
| 20260505054607 | 63 | 190 | 3.5 | 8.7 | 0.00 | 0.00 | 0.00 | 68 | 1014.9 |
| 20260505053100 | 63 | 184 | 2.6 | 8.7 | 0.00 | 0.00 | 0.00 | 67 | 1015.2 |
| 20260505051542 | 64 | 188 | 4.3 | 10.4 | 0.00 | 0.00 | 0.00 | 67 | 1015.0 |
| 20260505041545 | 64 | 107 | 4.3 | 13.0 | 0.00 | 0.00 | 0.00 | 67 | 1015.0 |
| 20260505040044 | 65 | 189 | 3.5 | 13.0 | 0.00 | 0.00 | 0.00 | 67 | 1015.0 |
| 20260505034545 | 65 | 164 | 3.5 | 12.2 | 0.00 | 0.00 | 0.00 | 67 | 1014.9 |
| 20260505033048 | 65 | 184 | 5.2 | 13.0 | 0.00 | 0.00 | 0.00 | 67 | 1014.9 |
| 20260505031602 | 65 | 146 | 6.1 | 11.3 | 0.00 | 0.00 | 0.00 | 66 | 1014.9 |
| 20260505030044 | 65 | 135 | 6.1 | 15.6 | 0.00 | 0.00 | 0.00 | 66 | 1014.9 |
| 20260505024541 | 66 | 112 | 7.0 | 16.5 | 0.00 | 0.00 | 0.00 | 67 | 1014.9 |
| 20260505023052 | 66 | 121 | 6.1 | 16.5 | 0.00 | 0.00 | 0.00 | 67 | 1014.9 |
| 20260505021545 | 66 | 174 | 5.2 | 16.5 | 0.00 | 0.00 | 0.00 | 67 | 1014.6 |
| 20260505020045 | 67 | 153 | 7.8 | 14.8 | 0.00 | 0.00 | 0.00 | 67 | 1014.7 |
| 20260505014543 | 67 | 134 | 5.2 | 13.9 | 0.00 | 0.00 | 0.00 | 67 | 1014.6 |
| 20260505013047 | 67 | 140 | 7.0 | 19.1 | 0.00 | 0.00 | 0.00 | 66 | 1014.5 |
| 20260505011547 | 68 | 130 | 7.0 | 11.3 | 0.00 | 0.00 | 0.00 | 66 | 1014.2 |
| 20260505010046 | 68 | 117 | 5.2 | 15.6 | 0.00 | 0.00 | 0.00 | 65 | 1014.0 |
| 20260505004553 | 68 | 191 | 5.2 | 17.4 | 0.00 | 0.00 | 0.00 | 65 | 1013.8 |
| 20260505003044 | 69 | 101 | 6.1 | 17.4 | 0.00 | 0.00 | 0.00 | 64 | 1013.5 |
| 20260505001540 | 69 | 119 | 5.2 | 11.3 | 0.00 | 0.00 | 0.00 | 63 | 1013.5 |
| 20260505000105 | 70 | 126 | 5.2 | 17.4 | 0.00 | 0.00 | 0.00 | 62 | 1013.2 |
| 20260504234545 | 71 | 163 | 5.2 | 13.0 | 0.00 | 0.00 | 0.00 | 60 | 1013.1 |
| 20260504233044 | 71 | 148 | 5.2 | 15.6 | 0.00 | 0.00 | 0.00 | 58 | 1012.9 |
| 20260504231542 | 73 | 143 | 3.5 | 16.5 | 0.00 | 0.00 | 0.00 | 55 | 1012.6 |
| 20260504230100 | 75 | 136 | 5.2 | 10.4 | 0.00 | 0.00 | 0.00 | 41 | 1012.4 |
| 20260504224539 | 76 | 221 | 3.5 | 9.6 | 0.00 | 0.00 | 0.00 | 41 | 1012.3 |
| 20260504223046 | 76 | 148 | 4.3 | 13.9 | 0.00 | 0.00 | 0.00 | 40 | 1012.2 |
| 20260504221557 | 77 | 79 | 4.3 | 12.2 | 0.00 | 0.00 | 0.00 | 39 | 1012.3 |
| 20260504220044 | 77 | 116 | 3.5 | 8.7 | 0.00 | 0.00 | 0.00 | 40 | 1012.2 |
| 20260504214540 | 77 | 160 | 3.5 | 11.3 | 0.00 | 0.00 | 0.00 | 39 | 1012.3 |
| 20260504213047 | 77 | 115 | 4.3 | 15.6 | 0.00 | 0.00 | 0.00 | 39 | 1012.5 |
| 20260504211548 | 77 | 108 | 4.3 | 12.2 | 0.00 | 0.00 | 0.00 | 38 | 1012.5 |
| 20260504210052 | 77 | 144 | 5.2 | 12.2 | 0.00 | 0.00 | 0.00 | 39 | 1012.6 |
| 20260504204541 | 77 | 82 | 4.3 | 10.4 | 0.00 | 0.00 | 0.00 | 38 | 1012.7 |
| 20260504203042 | 77 | 215 | 4.3 | 11.3 | 0.00 | 0.00 | 0.00 | 38 | 1012.9 |
| 20260504201540 | 76 | 188 | 8.7 | 14.8 | 0.00 | 0.00 | 0.00 | 39 | 1012.8 |
| 20260504200046 | 76 | 204 | 5.2 | 13.9 | 0.00 | 0.00 | 0.00 | 40 | 1012.9 |
| 20260504194543 | 77 | 213 | 4.3 | 13.9 | 0.00 | 0.00 | 0.00 | 39 | 1013.1 |
| 20260504193044 | 76 | 117 | 5.2 | 13.0 | 0.00 | 0.00 | 0.00 | 40 | 1013.3 |
| 20260504191543 | 76 | 217 | 7.8 | 16.5 | 0.00 | 0.00 | 0.00 | 41 | 1013.4 |
| 20260504190049 | 75 | 217 | 6.1 | 17.4 | 0.00 | 0.00 | 0.00 | 43 | 1013.7 |
| 20260504184546 | 75 | 130 | 7.8 | 20.0 | 0.00 | 0.00 | 0.00 | 43 | 1013.9 |